SCD 1 1 22490U 93009B 26104.07369948 .00000368 00000+0 49579-4 0 9991 2 22490 24.9690 243.4311 0041865 179.1782 347.1940 14.46091446751826 TECHSAT 1B (GO-32) 1 25397U 98043D 26103.51078617 .00000039 00000+0 37238-4 0 9995 2 25397 99.0057 94.6453 0002164 63.7631 296.3769 14.24415573442129 SCD 2 1 25504U 98060A 26104.29690962 .00000319 00000+0 38068-4 0 9996 2 25504 24.9944 106.1599 0016833 167.0765 216.0125 14.45501324451077 DLR-TUBSAT 1 25757U 99029B 26104.22503987 .00000047 00000+0 23375-4 0 9998 2 25757 98.6689 97.6302 0014169 179.9776 180.1422 14.52410399423968 TERRA 1 25994U 99068A 26104.26311668 .00000235 00000+0 56827-4 0 9998 2 25994 97.9521 156.3256 0003598 79.6982 1.6679 14.61052446400273 MAROC-TUBSAT 1 27004U 01056D 26104.28255220 -.00000019 00000+0 31866-4 0 9992 2 27004 99.8051 279.9424 0019195 308.0262 231.8692 13.70259761217439 AQUA 1 27424U 02022A 26104.28596369 .00000518 00000+0 11294-3 0 9999 2 27424 98.4230 72.3158 0001760 107.9287 22.2732 14.62057917273935 IRS-P6 (RESOURCESAT-1) 1 28051U 03046A 26104.27587095 -.00000001 00000+0 13411-4 0 9990 2 28051 98.1983 143.9011 0064281 172.8895 277.9436 14.36137588171357 SHIYAN-1 (SY-1) 1 28220U 04012A 26104.14678633 .00006415 00000+0 20945-3 0 9990 2 28220 97.8720 178.1357 0004910 235.7826 124.2949 15.32142921201282 AURA 1 28376U 04026A 26104.23701407 .00000517 00000+0 11457-3 0 9998 2 28376 98.3366 60.1860 0001585 91.7877 268.3505 14.61229577156872 IRS-P5 (CARTOSAT-1) 1 28649U 05017A 26104.32152040 .00000679 00000+0 74188-4 0 9995 2 28649 97.5369 130.2743 0000601 90.5079 269.6209 14.90886184134301 SINAH 1 1 28893U 05043D 26104.29269593 .00000215 00000+0 50258-4 0 9991 2 28893 98.2754 238.2744 0015665 114.8662 245.4171 14.64113020 91172 RESURS-DK 1 1 29228U 06021A 26104.17362176 .00001129 00000+0 69999-4 0 9996 2 29228 69.9299 145.2246 0002416 8.7511 351.3697 15.12946157 92891 ARIRANG-2 (KOMPSAT-2) 1 29268U 06031A 26104.30078315 .00000018 00000+0 11900-4 0 9990 2 29268 97.8315 291.8365 0013015 277.6692 255.4369 14.64618896 52122 LAPAN-TUBSAT 1 29709U 07001A 26104.28185230 .00000577 00000+0 72731-4 0 9999 2 29709 98.1347 102.0706 0013123 38.9860 321.2298 14.85884800 41661 HAIYANG-1B 1 31113U 07010A 26104.23748869 .00000057 00000+0 37559-4 0 9991 2 31113 98.3469 88.5750 0014261 35.3436 324.8690 14.31010978991488 COSMO-SKYMED 1 1 31598U 07023A 26104.23200630 .00001472 00000+0 13387-3 0 9995 2 31598 97.8880 295.5565 0001468 86.1602 273.9787 14.96797294 20224 TERRASAR-X 1 31698U 07026A 26103.50907316 .00000427 00000+0 23533-4 0 9997 2 31698 97.4459 112.1365 0001673 91.2188 268.9238 15.19153092 43407 WORLDVIEW-1 (WV-1) 1 32060U 07041A 26104.22314837 .00003727 00000+0 15593-3 0 9990 2 32060 97.3860 224.8664 0001037 274.9700 85.1419 15.24189906 33131 YAOGAN-3 1 32289U 07055A 26104.29054578 .00001231 00000+0 13171-3 0 9996 2 32289 97.8223 134.7931 0001194 88.4464 271.6890 14.90540283996344 COSMO-SKYMED 2 1 32376U 07059A 26104.29608531 .00000274 00000+0 41010-4 0 9991 2 32376 97.8883 288.8190 0001378 90.9024 269.2347 14.82150587992537 RADARSAT-2 1 32382U 07061A 26104.29434339 .00000112 00000+0 60223-4 0 9992 2 32382 98.5809 112.1348 0001271 83.6674 276.4653 14.29980614956821 CARTOSAT-2A 1 32783U 08021A 26104.32426022 .00000284 00000+0 45023-4 0 9999 2 32783 97.7709 155.1955 0010933 325.8652 34.1856 14.79161393969366 HUANJING 1A (HJ-1A) 1 33320U 08041A 26104.30924505 .00000760 00000+0 97574-4 0 9993 2 33320 97.6662 92.6351 0018996 353.4150 6.6812 14.83841406948934 HUANJING 1B (HJ-1B) 1 33321U 08041B 26104.25026675 .00000475 00000+0 63788-4 0 9992 2 33321 97.6506 95.9398 0037476 35.2384 325.1298 14.83199372948932 GEOEYE 1 1 33331U 08042A 26104.20959669 .00000251 00000+0 56063-4 0 9997 2 33331 98.1258 178.9465 0002893 257.7073 102.3806 14.64666143940780 THEOS 1 33396U 08049A 26104.27659686 .00000102 00000+0 67848-4 0 9996 2 33396 98.5635 163.6187 0001218 95.9959 264.1357 14.20124435908890 COSMO-SKYMED 3 1 33412U 08054A 26104.25692331 .00000753 00000+0 55192-4 0 9994 2 33412 97.8380 321.7576 0017292 120.1132 240.1811 15.06551531947315 YAOGAN-4 1 33446U 08061A 26104.27693576 .00000623 00000+0 83080-4 0 9996 2 33446 97.9280 38.2766 0012834 280.4373 79.5394 14.83081119936195 GOSAT (IBUKI) 1 33492U 09002A 26104.31992968 .00000400 00000+0 78966-4 0 9995 2 33492 98.0806 216.2271 0001111 104.9748 255.1580 14.67539694922094 DEIMOS-1 1 35681U 09041A 26104.29184127 .00000510 00000+0 82607-4 0 9996 2 35681 97.7323 264.3167 0002526 65.0185 295.1287 14.75170938897468 DUBAISAT-1 1 35682U 09041B 26104.12095863 .00000670 00000+0 10718-3 0 9997 2 35682 97.9944 238.1206 0009092 277.2098 82.8077 14.75004342895650 OCEANSAT-2 1 35931U 09051A 26104.29089148 -.00000184 00000+0 -10005-3 0 9993 2 35931 98.2312 97.5332 0016875 56.8682 303.4102 13.99653929870395 WORLDVIEW-2 (WV-2) 1 35946U 09055A 26104.21526558 .00000063 00000+0 35142-4 0 9990 2 35946 98.4701 178.5671 0005302 60.7171 299.4546 14.37925091866454 SMOS 1 36036U 09059A 26104.25285264 .00000151 00000+0 61919-4 0 9994 2 36036 98.4436 292.5200 0001087 101.9736 258.1575 14.39785172864252 YAOGAN-7 1 36110U 09069A 26104.11116004 .00000299 00000+0 48741-4 0 9999 2 36110 98.0154 350.3485 0023307 244.7261 115.1534 14.77946816880165 TANDEM-X 1 36605U 10030A 26103.44320481 .00000436 00000+0 23945-4 0 9991 2 36605 97.4461 112.0725 0001836 96.1272 264.0172 15.19152585876810 CARTOSAT-2B 1 36795U 10035A 26104.32328049 .00000358 00000+0 56048-4 0 9995 2 36795 98.0027 155.2599 0012180 42.9172 317.2987 14.78652392850413 YAOGAN-10 1 36834U 10038A 26104.34015962 .00000667 00000+0 84269-4 0 9990 2 36834 97.9042 128.2467 0001394 82.7134 287.8509 14.85153512847732 COSMO-SKYMED 4 1 37216U 10060A 26104.30874726 -.00000282 00000+0 -28921-4 0 9995 2 37216 97.8887 288.8323 0001500 76.7229 283.4151 14.82145083835108 RESOURCESAT-2 1 37387U 11015A 26104.25191037 -.00000250 00000+0 -93951-4 0 9996 2 37387 98.7689 172.1236 0012392 84.0681 276.1908 14.21615499777098 HAIYANG-2A 1 37781U 11043A 26104.30879519 .00000241 00000+0 29109-3 0 9990 2 37781 99.3419 108.3015 0004300 212.0778 148.0111 13.76557663737872 RASAT 1 37791U 11044D 26104.25283483 .00000465 00000+0 89158-4 0 9994 2 37791 98.0545 196.6366 0021442 38.2700 46.0587 14.68107764783800 SRMSAT 1 37841U 11058D 26104.31023310 .00000364 00000+0 53637-4 0 9994 2 37841 19.9716 86.0981 0011644 220.2979 168.1284 14.11560196748785 PLEIADES 1A 1 38012U 11076F 26104.32852036 -.00000041 00000+0 10062-5 0 9990 2 38012 98.1997 180.2823 0001231 74.8570 0.6155 14.58569600762681 ZIYUAN 1-02C (ZY 1-02C) 1 38038U 11079A 26104.28281552 .00000102 00000+0 47829-4 0 9992 2 38038 98.4114 172.9173 0007363 131.9640 315.4488 14.38160977750027 ARIRANG-3 (KOMPSAT-3) 1 38338U 12025B 26104.25410839 .00000283 00000+0 65529-4 0 9993 2 38338 98.1119 62.8408 0004585 328.8386 31.2543 14.62149402742008 EXACTVIEW-1 (ADS-1B) 1 38709U 12039C 26104.06326511 .00000060 00000+0 45521-4 0 9995 2 38709 98.9681 220.0337 0010758 2.1177 358.0045 14.24965253713575 SPOT 6 1 38755U 12047A 26104.26049124 .00000021 00000+0 14383-4 0 9998 2 38755 98.2161 172.3053 0001280 84.3046 275.8299 14.58588112723731 PLEIADES 1B 1 39019U 12068A 26104.28010279 .00000114 00000+0 34422-4 0 9995 2 39019 98.1966 180.2047 0001128 79.2381 280.8945 14.58557265711538 GOKTURK 2 1 39030U 12073A 26104.26733638 .00000443 00000+0 72093-4 0 9994 2 39030 97.6871 304.8894 0001495 108.9206 251.2166 14.75481680715084 LANDSAT 8 1 39084U 13008A 26104.23100254 .00000202 00000+0 54861-4 0 9997 2 39084 98.1863 175.3619 0001168 94.1065 266.0267 14.57117419688588 SARAL 1 39086U 13009A 26104.28514201 .00000049 00000+0 34130-4 0 9992 2 39086 98.5566 291.6579 0002951 104.8692 255.2820 14.32840243686457 GAOFEN-1 1 39150U 13018A 26104.29393527 .00000308 00000+0 51317-4 0 9995 2 39150 97.9124 177.6505 0018535 110.2782 250.0423 14.76541615698814 VNREDSAT 1 1 39160U 13021B 26104.29085387 .00000194 00000+0 44683-4 0 9993 2 39160 97.9148 160.1393 0001288 84.3047 275.8303 14.64940966690931 ARIRANG-5 (KOMPSAT-5) 1 39227U 13042A 26104.31794458 .00001017 00000+0 77069-4 0 9998 2 39227 97.6225 291.9103 0003686 20.9192 339.2184 15.04477064694251 SKYSAT-A 1 39418U 13066C 26104.09646553 .00001964 00000+0 11549-3 0 9994 2 39418 97.3883 155.5316 0021915 171.9015 188.2574 15.12607669678798 DUBAISAT-2 1 39419U 13066D 26104.25298616 .00003414 00000+0 21541-3 0 9991 2 39419 97.4550 96.1034 0009567 251.0516 108.9677 15.09723391676746 GPM-CORE 1 39574U 14009C 26104.25214700 .00005931 00000+0 13222-3 0 9996 2 39574 64.9724 162.3550 0012553 257.7741 102.1994 15.44530456687939 SENTINEL-1A 1 39634U 14016A 26104.32180691 .00000111 00000+0 33280-4 0 9992 2 39634 98.1810 112.7816 0001412 85.3129 274.8232 14.59199005640704 KAZEOSAT 1 1 39731U 14024A 26104.32601843 -.00000070 00000+0 -83100-5 0 9999 2 39731 98.3233 178.3535 0001268 103.1108 257.0223 14.42054110629354 ALOS-2 1 39766U 14029A 26104.29371568 .00000085 00000+0 18316-4 0 9996 2 39766 97.9191 202.3732 0001789 91.6313 268.5104 14.79476193642139 KAZEOSAT 2 1 40010U 14033A 26104.30340565 .00000106 00000+0 18069-4 0 9999 2 40010 97.5464 307.2750 0008845 160.5310 199.6245 14.85393012639478 HODOYOSHI-4 1 40011U 14033B 26104.28710654 .00001516 00000+0 17014-3 0 9991 2 40011 97.5464 292.1987 0024283 153.9859 206.2584 14.87975405639308 DEIMOS-2 1 40013U 14033D 26104.27234860 .00001493 00000+0 14686-3 0 9998 2 40013 97.5922 340.9831 0001795 110.8450 249.2963 14.93549203628183 HODOYOSHI-3 1 40015U 14033F 26103.98404651 .00000872 00000+0 10686-3 0 9990 2 40015 97.6355 269.6365 0032384 203.7456 156.2267 14.85245462638097 SPOT 7 1 40053U 14034A 26104.28004231 .00000054 00000+0 20352-4 0 9991 2 40053 98.0682 168.4056 0001630 85.3786 274.7601 14.60902150627802 SKYSAT-B 1 40072U 14037D 26103.43279907 .00000992 00000+0 11517-3 0 9998 2 40072 98.3782 58.7383 0006724 120.9385 239.2492 14.87857182636336 WORLDVIEW-3 (WV-3) 1 40115U 14048A 26104.22104488 .00000476 00000+0 62246-4 0 9990 2 40115 97.8586 179.9354 0002398 128.4571 231.6859 14.84915993632417 GAOFEN-2 1 40118U 14049A 26104.32342593 -.00000044 00000+0 12645-5 0 9997 2 40118 98.0161 168.5796 0008764 81.5654 278.6551 14.80823425629780 YAOGAN-21 1 40143U 14053A 26104.29005350 .00001074 00000+0 45074-4 0 9997 2 40143 97.1552 147.2904 0006992 329.9037 30.1799 15.25487345645210 YAOGAN-22 1 40275U 14063A 26104.15068466 -.00000011 00000+0 94508-4 0 9993 2 40275 100.7619 254.3832 0005979 339.1260 20.9606 13.15528921551398 ASNARO 1 40298U 14070A 26104.28407757 .00005580 00000+0 26610-3 0 9993 2 40298 97.3473 182.1107 0003875 52.3746 307.7840 15.19480589634303 YAOGAN-24 1 40310U 14072A 26104.29807742 .00000447 00000+0 72316-4 0 9991 2 40310 98.1373 241.1327 0015253 106.8666 253.4218 14.76139480614290 CBERS 4 1 40336U 14079A 26104.32995094 .00000089 00000+0 45507-4 0 9992 2 40336 98.3416 163.1897 0000769 136.0413 224.0834 14.35542535594798 YAOGAN-26 1 40362U 14088A 26104.25165448 .00015118 00000+0 32341-3 0 9995 2 40362 97.0662 106.0770 0001854 290.8728 69.2323 15.44893736627822 SMAP 1 40376U 15003A 26104.28534132 .00000261 00000+0 59530-4 0 9994 2 40376 98.1302 112.2783 0001925 86.6413 273.5009 14.63382833598272 KOMPSAT-3A 1 40536U 15014A 26104.23688108 .00020265 00000+0 32576-3 0 9998 2 40536 97.6892 91.0804 0062092 52.0063 308.6773 15.50801979611892 SENTINEL-2A 1 40697U 15028A 26104.29864694 -.00000036 00000+0 27121-5 0 9990 2 40697 98.5634 180.0683 0001323 90.2955 269.8379 14.30820159564594 GAOFEN-8 1 40701U 15030A 26104.28364191 .00007916 00000+0 17707-3 0 9995 2 40701 97.6939 293.9229 0010238 69.0064 291.2277 15.43730332601583 CARBONITE 1 (CBNT-1) 1 40718U 15032D 26104.30710003 .00000684 00000+0 89370-4 0 9996 2 40718 97.6491 285.0635 0015394 140.0762 220.1588 14.83384330579878 YAOGAN-27 1 40878U 15040A 26104.24706936 .00000604 00000+0 17022-2 0 9990 2 40878 100.1135 93.4130 0008384 7.3998 352.7238 13.16069283509259 GAOFEN-9 01 1 40894U 15047A 26104.29354156 .00000585 00000+0 78309-4 0 9998 2 40894 97.6346 142.8740 0027088 353.0259 7.0574 14.82769641570722 YAOGAN-28 1 41026U 15064A 26104.29983807 .00004621 00000+0 17883-3 0 9990 2 41026 97.2967 243.9392 0011988 61.8016 298.4432 15.26614448580934 YAOGAN-29 1 41038U 15069A 26104.28435684 -.00000236 00000+0 -22382-4 0 9993 2 41038 98.0097 132.8015 0000845 160.7132 199.4114 14.83031599561158 KENT RIDGE 1 1 41167U 15077B 26104.10990147 .00003046 00000+0 95137-4 0 9994 2 41167 14.9807 22.3752 0008341 54.3698 305.7400 15.22743608571316 GAOFEN-4 1 41194U 15083A 26104.07183756 -.00000331 00000+0 00000+0 0 9992 2 41194 0.3408 82.5028 0002927 127.7893 123.5305 1.00274369 37885 JASON-3 1 41240U 16002A 26104.23564164 -.00000055 00000+0 29484-4 0 9995 2 41240 66.0405 260.2858 0007774 275.4889 84.5242 12.87628284479017 SENTINEL-3A 1 41335U 16011A 26104.25810646 .00000060 00000+0 42677-4 0 9995 2 41335 98.6285 172.5480 0001018 91.8968 268.2329 14.26736001528944 ZIYUAN 3-02 (ZY 3-02) 1 41556U 16033A 26104.25800507 .00003436 00000+0 15562-3 0 9991 2 41556 97.3856 181.2512 0014460 155.8108 204.3810 15.21456894548262 CARTOSAT-2C 1 41599U 16040A 26104.30409740 .00003388 00000+0 16367-3 0 9996 2 41599 97.4544 165.1401 0009108 4.6195 355.5122 15.19287776544014 SKYSAT-C1 1 41601U 16040C 26104.03603587 .00005123 00000+0 15188-3 0 9994 2 41601 96.9641 139.2617 0000948 205.8890 154.2307 15.35242966548025 LAPAN-A3 1 41603U 16040E 26104.28343144 .00002435 00000+0 79445-4 0 9993 2 41603 97.1490 102.5523 0008637 239.2317 120.8076 15.32691266545026 GAOFEN-3 1 41727U 16049A 26104.32566213 .00000264 00000+0 93399-4 0 9990 2 41727 98.4043 113.0705 0001441 66.4498 293.6843 14.42225479509442 SKYSAT-C4 1 41771U 16058B 26104.31875334 .00009271 00000+0 18748-3 0 9996 2 41771 96.9240 128.8385 0003399 112.4149 247.7462 15.46655136535594 SKYSAT-C5 1 41772U 16058C 26104.04674307 .00004612 00000+0 14205-3 0 9992 2 41772 97.0546 147.5671 0002665 169.5958 190.5341 15.34092364533918 SKYSAT-C2 1 41773U 16058D 26103.79197131 .00006980 00000+0 17316-3 0 9995 2 41773 97.0234 128.3616 0001135 293.6130 66.4998 15.40656949535138 SKYSAT-C3 1 41774U 16058E 26104.08502034 .00012669 00000+0 22782-3 0 9995 2 41774 96.9122 137.4833 0002429 108.6328 251.5188 15.49964362536179 ALSAT-1B 1 41785U 16059C 26104.28561972 .00000506 00000+0 87598-4 0 9990 2 41785 97.7788 115.8038 0010787 73.8977 286.3417 14.72226932511177 PATHFINDER 1 1 41787U 16059E 26103.70787936 .00000469 00000+0 90320-4 0 9993 2 41787 97.8181 105.8959 0029695 53.7597 306.6346 14.67582568510250 SCATSAT 1 1 41790U 16059H 26104.16466865 .00000820 00000+0 11455-3 0 9995 2 41790 98.1240 167.2633 0056125 94.5409 266.2216 14.79384160 92127 GOKTURK 1A 1 41875U 16073A 26104.28830480 .00000376 00000+0 82843-4 0 9992 2 41875 98.1318 359.9410 0001377 81.2399 278.8959 14.62786476499481 RESOURCESAT-2A 1 41877U 16074A 26104.23391837 -.00000021 00000+0 10606-4 0 9994 2 41877 98.7551 178.2535 0001040 255.9613 104.1448 14.21614704485213 CARTOSAT-2D 1 41948U 17008A 26104.27128973 -.00000069 00000+0 -97305-7 0 9991 2 41948 97.4170 164.7495 0005918 105.1520 255.0370 15.19301087507873 SENTINEL-2B 1 42063U 17013A 26104.29140095 -.00000155 00000+0 -42530-4 0 9990 2 42063 98.5661 179.9744 0001228 93.7599 266.3724 14.30820206475505 CARTOSAT-2E 1 42767U 17036C 26104.28851589 .00000414 00000+0 22870-4 0 9993 2 42767 97.4336 165.1233 0003545 153.1553 206.9866 15.19229118488445 FORMOSAT-5 1 42920U 17049A 26104.19222617 .00000082 00000+0 31917-4 0 9995 2 42920 98.2267 180.9194 0010361 284.2180 75.7864 14.50714188457395 SENTINEL-5P 1 42969U 17064A 26104.27082370 .00000014 00000+0 27480-4 0 9999 2 42969 98.7927 46.8614 0001264 85.6275 274.5045 14.19507913440497 SKYSAT-C11 1 42987U 17068A 26104.20659607 .00016201 00000+0 24603-3 0 9997 2 42987 97.4262 250.4487 0001022 155.4705 204.6598 15.54663763473299 SKYSAT-C10 1 42988U 17068B 26104.30332867 .00005519 00000+0 17280-3 0 9998 2 42988 97.4397 240.6203 0001255 115.3929 244.7443 15.33524753472562 SKYSAT-C9 1 42989U 17068C 26104.13784321 .00007651 00000+0 19360-3 0 9996 2 42989 97.4321 240.7988 0008615 16.3087 343.8434 15.40018205472898 SKYSAT-C8 1 42990U 17068D 26104.10788004 .00006754 00000+0 19685-3 0 9990 2 42990 97.4416 239.9866 0001050 103.0327 257.1034 15.35708878472470 SKYSAT-C7 1 42991U 17068E 26104.09909331 .00006421 00000+0 18753-3 0 9993 2 42991 97.4427 240.9632 0005433 347.9733 12.1380 15.35654395472539 SKYSAT-C6 1 42992U 17068F 26103.82153904 .00005650 00000+0 17787-3 0 9990 2 42992 97.4461 240.8621 0002856 39.7151 320.4300 15.33336311472452 CARTOSAT-2F 1 43111U 18004A 26104.32018396 .00002045 00000+0 10009-3 0 9991 2 43111 97.4095 164.8234 0002495 117.1243 243.0247 15.19306424457635 GAOFEN-1 02 1 43259U 18031A 26104.32282184 -.00000403 00000+0 -50554-4 0 9990 2 43259 98.0582 167.0118 0002529 186.0899 174.0281 14.76428054433273 GAOFEN-1 03 1 43260U 18031B 26104.30085332 .00000436 00000+0 70213-4 0 9994 2 43260 98.0568 166.8550 0001093 286.7431 73.3659 14.76416718433264 GAOFEN-1 04 1 43262U 18031D 26104.27678493 .00000654 00000+0 10146-3 0 9998 2 43262 98.0581 167.0134 0000854 63.5201 296.6096 14.76452593433257 SENTINEL-3B 1 43437U 18039A 26104.16109003 .00000058 00000+0 42199-4 0 9996 2 43437 98.6284 172.6003 0001649 103.9539 256.1825 14.26738986414999 GAOFEN-5 01 1 43461U 18043A 26104.14540591 .00000202 00000+0 51707-4 0 9993 2 43461 98.4523 74.4079 0000557 302.7807 57.3339 14.60560162422342 GAOFEN-6 1 43484U 18048A 26104.30437876 .00000144 00000+0 27669-4 0 9997 2 43484 97.7811 169.3148 0012751 28.4225 331.7678 14.76556204423968 GAOFEN-11 01 1 43585U 18063A 26104.30982688 .00008440 00000+0 13459-3 0 9990 2 43585 97.1347 171.4419 0003820 183.1395 176.9836 15.53469335430425 ICESAT-2 1 43613U 18070A 26104.24751064 .00001813 00000+0 65739-4 0 9991 2 43613 92.0004 273.7372 0003423 64.6331 295.5272 15.28255279422691 HYSIS 1 43719U 18096A 26104.26311696 .00000219 00000+0 36957-4 0 9990 2 43719 97.9883 171.4987 0001166 63.8338 296.2993 14.78646511397970 KAZSTSAT 1 43783U 18099AB 26104.04877601 .00001466 00000+0 12321-3 0 9996 2 43783 97.4377 138.8659 0002986 239.3789 120.7141 14.99745618401690 SAUDISAT 5A 1 43831U 18102A 26104.30263947 .00003476 00000+0 13213-3 0 9990 2 43831 97.3124 167.1278 0009757 10.6660 349.4785 15.27408385405929 SAUDISAT 5B 1 43833U 18102C 26104.26745618 .00003136 00000+0 11843-3 0 9997 2 43833 97.3225 170.0480 0010535 12.4287 347.7210 15.27697271406033 GAOFEN-10R 1 44622U 19066A 26104.25729976 .00000786 00000+0 10367-3 0 9990 2 44622 98.0448 57.3971 0005547 0.6808 359.4412 14.82916726352901 CARTOSAT-3 1 44804U 19081A 26104.26951260 .00001120 00000+0 56346-4 0 9994 2 44804 97.4363 167.1449 0012422 21.3024 338.8725 15.19217347353769 GAOFEN-12 01 1 44819U 19082A 26104.27555286 .00000245 00000+0 38654-4 0 9999 2 44819 97.8128 112.3394 0000787 122.9528 237.1760 14.80406377344633 CSG-1 1 44873U 19092A 26104.32139971 .00000244 00000+0 37173-4 0 9999 2 44873 97.8885 288.8467 0001227 87.9465 272.1889 14.82160573342011 NEMO-HD 1 46277U 20061F 26104.28979177 .00006032 00000+0 13728-3 0 9992 2 46277 97.1980 166.9314 0000796 111.0279 249.1055 15.43336890312122 SENTINEL-6A 1 46984U 20086A 26104.14131670 -.00000056 00000+0 20893-4 0 9990 2 46984 66.0402 268.0760 0007734 270.5385 89.4744 12.80930897252126 GAOFEN-12 02 1 48079U 21026A 26104.27984104 .00000256 00000+0 40629-4 0 9994 2 48079 97.9928 102.7262 0006304 83.7641 276.4289 14.80244641272302 PLEIADES NEO 3 1 48268U 21034A 26104.29990307 .00000291 00000+0 43629-4 0 9999 2 48268 97.8932 179.9836 0001242 95.2543 264.8812 14.81673549268193 PLEIADES NEO 4 1 49070U 21073E 26104.26614197 -.00000465 00000+0 -52443-4 0 9990 2 49070 97.8931 179.9465 0001257 93.9307 266.2049 14.81672314251909 LANDSAT 9 1 49260U 21088A 26103.92213627 .00000211 00000+0 56728-4 0 9999 2 49260 98.1885 175.1284 0001139 100.3231 259.8096 14.57112999241648 CSG-2 1 51444U 22008A 26104.28764363 .00000405 00000+0 57379-4 0 9995 2 51444 97.8887 288.8100 0001431 83.7459 276.3917 14.82158115227124 GAOFEN-12 03 1 52912U 22069A 26104.22952008 .00000208 00000+0 34309-4 0 9991 2 52912 97.8358 353.6903 0001849 50.9042 309.2335 14.79930704205154 SWOT 1 54754U 22173A 26104.32253370 .00000021 00000+0 16158-4 0 9995 2 54754 77.6076 121.5240 0000725 182.3166 177.7982 14.00169289170218 GAOFEN-12 04 1 57654U 23123A 26104.25417509 .00000662 00000+0 94100-4 0 9995 2 57654 97.9129 23.1944 0001258 82.7473 277.3882 14.80104347143171 PARS 1 1 59065U 24039Q 26104.26199201 .00006926 00000+0 15166-3 0 9990 2 59065 97.4788 83.2497 0009238 359.8780 0.2464 15.44411079118771 RESURS-P 4 1 59371U 24061A 26104.31803295 .00002122 00000+0 68494-4 0 9993 2 59371 97.2702 53.3634 0001162 121.8737 238.2619 15.33232158113983 LEGION 1 1 59625U 24081A 26104.23205467 .00002362 00000+0 12400-3 0 9996 2 59625 97.5033 182.7629 0008778 236.3524 123.6873 15.16682863107842 LEGION 2 1 59626U 24081B 26104.26743798 .00002121 00000+0 11097-3 0 9998 2 59626 97.5032 182.8830 0010209 206.6000 153.4711 15.16911241107856 ALOS-4 (DAICHI-4) 1 60182U 24123A 26104.24545772 .00000961 00000+0 13556-3 0 9996 2 60182 97.9198 202.3287 0001590 99.1170 261.0221 14.79476436 96424 LEGION 3 1 60452U 24146A 26104.20404643 .00002324 00000+0 13528-3 0 9992 2 60452 45.0030 13.5719 0008878 163.0344 197.0832 15.15232858 92314 LEGION 4 1 60453U 24146B 26104.26852913 .00002617 00000+0 14926-3 0 9994 2 60453 45.0006 105.0798 0015223 312.4216 47.5374 15.15510205 91170 SENTINEL-2C 1 60989U 24157A 26104.18651670 .00000061 00000+0 39778-4 0 9992 2 60989 98.5642 179.8859 0001355 108.4340 251.6991 14.30813337 83837 IONOSFERA-M 1 1 61735U 24199A 26104.26725202 .00000006 00000+0 22386-4 0 9996 2 61735 98.7264 338.0856 0001087 29.6269 330.4971 14.22742269118616 IONOSFERA-M 2 1 61736U 24199B 26104.23136132 .00000004 00000+0 21263-4 0 9993 2 61736 98.7263 337.9612 0001687 112.2035 247.9322 14.22745061121732 BIOMASS 1 63772U 25090A 26104.07578919 .00000797 00000+0 14908-3 0 9997 2 63772 98.0752 292.3222 0001355 97.8962 262.2396 14.67536167 51287 GOSAT-GW (IBUKI GW) 1 64694U 25141A 26104.30415450 .00000186 00000+0 41181-4 0 9990 2 64694 98.0539 42.6714 0001410 83.9826 276.1539 14.67557989 42472 IONOSFERA-M 3 1 64876U 25155A 26104.26220275 .00000024 00000+0 30467-4 0 9997 2 64876 98.5976 67.7958 0002337 63.7265 296.4153 14.21475135 37321 IONOSFERA-M 4 1 64877U 25155B 26104.29713514 .00000029 00000+0 32722-4 0 9995 2 64877 98.5975 67.7478 0001699 66.3257 293.8098 14.21477111 37323 MICROCARB 1 64899U 25156A 26103.92535795 .00000350 00000+0 63218-4 0 9993 2 64899 97.9845 182.2086 0017695 116.0916 244.2115 14.72257147 38515 CO3D 3 1 64900U 25156B 26104.27370627 -.00006032 00000+0 -27584-3 0 9996 2 64900 97.4325 183.8844 0001672 55.0700 305.0692 15.20190628 39821 CO3D 4 1 64901U 25156C 26104.27386163 .00002812 00000+0 13295-3 0 9993 2 64901 97.4328 183.8849 0001645 121.0877 239.0519 15.20211515 39822 CO3D 2 1 64902U 25156D 26103.97723362 .00002841 00000+0 13432-3 0 9991 2 64902 97.4328 183.4913 0001182 53.2351 306.8993 15.20194250 39779 CO3D 1 1 64903U 25156E 26103.64843334 .00003151 00000+0 12932-3 0 9997 2 64903 98.0928 182.3847 0110033 5.8142 354.4339 15.19681462 39726 SENTINEL-6B 1 66514U 25264A 26104.14165956 -.00000056 00000+0 20925-4 0 9994 2 66514 66.0402 268.2014 0007898 270.0138 89.9972 12.80930743 18963 CSG-3 1 67304U 26001A 26104.26655159 .00000231 00000+0 35605-4 0 9999 2 67304 97.8885 288.7923 0001412 86.1877 273.9498 14.82147797 14996